Time,TemperatureF,DewpointF,PressureIn,WindDirection,WindDirectionDegrees,WindSpeedMPH,WindSpeedGustMPH,Humidity,HourlyPrecipIn,Conditions,Clouds,dailyrainin,SoftwareType,DateUTC
2013-04-18 00:02:00,34.0,6.0,-100.00,ENE,61,6.0,11.0,30,0.00,,,-99.99,,2013-04-18 06:02:00,
2013-04-18 00:12:00,34.0,5.0,-100.00,NE,45,8.0,11.0,29,0.00,,,-99.99,,2013-04-18 06:12:00,
2013-04-18 00:22:00,34.0,5.0,-100.00,ENE,71,6.0,8.0,29,0.00,,,-99.99,,2013-04-18 06:22:00,
2013-04-18 00:32:00,34.0,5.0,-100.00,ENE,71,6.0,8.0,29,0.00,,,-99.99,,2013-04-18 06:32:00,
2013-04-18 00:42:00,33.0,4.0,-100.00,NE,52,6.0,9.0,29,0.00,,,-99.99,,2013-04-18 06:42:00,
2013-04-18 00:52:00,33.0,5.0,-100.00,NE,56,6.0,10.0,30,0.00,,,-99.99,,2013-04-18 06:52:00,
2013-04-18 01:02:00,33.0,5.0,-100.00,NE,56,6.0,10.0,30,0.00,,,-99.99,,2013-04-18 07:02:00,
2013-04-18 01:12:00,33.0,5.0,-100.00,NE,56,6.0,10.0,30,0.00,,,-99.99,,2013-04-18 07:12:00,
2013-04-18 01:22:00,33.0,5.0,-100.00,ENE,58,5.0,8.0,30,0.00,,,-99.99,,2013-04-18 07:22:00,
2013-04-18 01:32:00,33.0,5.0,-100.00,ENE,58,5.0,8.0,30,0.00,,,-99.99,,2013-04-18 07:32:00,
2013-04-18 01:42:00,32.0,5.0,-100.00,NNW,330,1.0,2.0,31,0.00,,,-99.99,,2013-04-18 07:42:00,
2013-04-18 01:52:00,32.0,5.0,-100.00,NNW,330,1.0,2.0,31,0.00,,,-99.99,,2013-04-18 07:52:00,
2013-04-18 02:02:00,32.0,5.0,-100.00,NNW,330,1.0,2.0,31,0.00,,,-99.99,,2013-04-18 08:02:00,
2013-04-18 02:12:00,32.0,6.0,-100.00,SSW,198,3.0,5.0,32,0.00,,,-99.99,,2013-04-18 08:12:00,
2013-04-18 02:22:00,30.0,7.0,-100.00,WSW,243,1.0,2.0,37,0.00,,,-99.99,,2013-04-18 08:22:00,
2013-04-18 02:32:00,30.0,7.0,-100.00,WSW,243,1.0,2.0,37,0.00,,,-99.99,,2013-04-18 08:32:00,
2013-04-18 02:42:00,28.0,8.0,-100.00,North,356,3.0,4.0,42,0.00,,,-99.99,,2013-04-18 08:42:00,
2013-04-18 02:52:00,28.0,8.0,-100.00,North,356,3.0,4.0,42,0.00,,,-99.99,,2013-04-18 08:52:00,
2013-04-18 03:02:00,28.0,8.0,-100.00,North,356,3.0,4.0,42,0.00,,,-99.99,,2013-04-18 09:02:00,
2013-04-18 03:12:00,28.0,8.0,-100.00,NE,40,2.0,3.0,43,0.00,,,-99.99,,2013-04-18 09:12:00,
2013-04-18 03:22:00,27.0,8.0,-100.00,NE,40,4.0,5.0,44,0.00,,,-99.99,,2013-04-18 09:22:00,
2013-04-18 03:32:00,27.0,8.0,-100.00,NE,40,4.0,5.0,44,0.00,,,-99.99,,2013-04-18 09:32:00,
2013-04-18 03:43:00,27.0,9.0,-100.00,ENE,64,4.0,6.0,46,0.00,,,-99.99,,2013-04-18 09:43:00,
2013-04-18 03:53:00,26.0,8.0,-100.00,ENE,73,5.0,7.0,46,0.00,,,-99.99,,2013-04-18 09:53:00,
2013-04-18 04:02:00,26.0,8.0,-100.00,ENE,73,5.0,7.0,46,0.00,,,-99.99,,2013-04-18 10:02:00,
2013-04-18 04:12:00,26.0,8.0,-100.00,East,85,4.0,6.0,45,0.00,,,-99.99,,2013-04-18 10:12:00,
2013-04-18 04:22:00,26.0,8.0,-100.00,East,85,4.0,6.0,45,0.00,,,-99.99,,2013-04-18 10:22:00,
2013-04-18 04:32:00,26.0,8.0,-100.00,East,85,4.0,6.0,45,0.00,,,-99.99,,2013-04-18 10:32:00,
2013-04-18 04:42:00,26.0,8.0,-100.00,ESE,107,3.0,5.0,46,0.00,,,-99.99,,2013-04-18 10:42:00,
2013-04-18 04:52:00,24.0,8.0,-100.00,SE,134,4.0,5.0,48,0.00,,,-99.99,,2013-04-18 10:52:00,
2013-04-18 05:02:00,24.0,8.0,-100.00,SE,134,4.0,5.0,48,0.00,,,-99.99,,2013-04-18 11:02:00,
2013-04-18 05:22:00,23.0,8.0,-100.00,SE,130,4.0,5.0,51,0.00,,,-99.99,,2013-04-18 11:22:00,
2013-04-18 05:32:00,23.0,8.0,-100.00,SE,130,4.0,5.0,51,0.00,,,-99.99,,2013-04-18 11:32:00,
2013-04-18 05:42:00,23.0,8.0,-100.00,SE,131,4.0,5.0,52,0.00,,,-99.99,,2013-04-18 11:42:00,
2013-04-18 05:52:00,24.0,8.0,-100.00,SE,128,4.0,5.0,49,0.00,,,-99.99,,2013-04-18 11:52:00,
2013-04-18 06:02:00,24.0,8.0,-100.00,SE,128,4.0,5.0,49,0.00,,,-99.99,,2013-04-18 12:02:00,
2013-04-18 06:12:00,24.0,8.0,-100.00,ESE,121,4.0,5.0,50,0.00,,,-99.99,,2013-04-18 12:12:00,
2013-04-18 06:22:00,24.0,8.0,-100.00,ESE,121,4.0,5.0,50,0.00,,,-99.99,,2013-04-18 12:22:00,
2013-04-18 06:32:00,24.0,8.0,-100.00,ESE,121,4.0,5.0,50,0.00,,,-99.99,,2013-04-18 12:32:00,
2013-04-18 06:42:00,23.0,8.0,-100.00,SE,130,4.0,5.0,51,0.00,,,-99.99,,2013-04-18 12:42:00,
2013-04-18 06:52:00,23.0,8.0,-100.00,SE,128,5.0,6.0,51,0.00,,,-99.99,,2013-04-18 12:52:00,
2013-04-18 07:02:00,23.0,8.0,-100.00,SE,128,5.0,6.0,51,0.00,,,-99.99,,2013-04-18 13:02:00,
2013-04-18 07:12:00,24.0,7.0,-100.00,ESE,123,4.0,4.0,48,0.00,,,-99.99,,2013-04-18 13:12:00,
2013-04-18 07:42:00,24.0,7.0,-100.00,ESE,123,3.0,4.0,48,0.00,,,-99.99,,2013-04-18 13:42:00,
2013-04-18 07:53:00,25.0,9.0,-100.00,NW,313,1.0,2.0,49,0.00,,,-99.99,,2013-04-18 13:53:00,
2013-04-18 08:02:00,25.0,9.0,-100.00,NW,313,1.0,2.0,49,0.00,,,-99.99,,2013-04-18 14:02:00,
2013-04-18 08:12:00,27.0,9.0,-100.00,ENE,69,1.0,2.0,47,0.00,,,-99.99,,2013-04-18 14:12:00,
2013-04-18 08:22:00,29.0,9.0,-100.00,North,360,2.0,4.0,43,0.00,,,-99.99,,2013-04-18 14:22:00,
2013-04-18 08:32:00,29.0,9.0,-100.00,North,360,2.0,4.0,43,0.00,,,-99.99,,2013-04-18 14:32:00,
2013-04-18 08:52:00,28.0,10.0,-100.00,NE,34,6.0,7.0,47,0.00,,,-99.99,,2013-04-18 14:52:00,
2013-04-18 09:12:00,28.0,10.0,-100.00,NE,34,6.0,7.0,47,0.00,,,-99.99,,2013-04-18 15:12:00,
2013-04-18 09:22:00,31.0,14.0,-100.00,ENE,69,3.0,5.0,49,0.00,,,-99.99,,2013-04-18 15:22:00,
2013-04-18 09:33:00,31.0,14.0,-100.00,ENE,69,3.0,5.0,49,0.00,,,-99.99,,2013-04-18 15:33:00,
2013-04-18 09:43:00,31.0,14.0,-100.00,ENE,69,3.0,5.0,49,0.00,,,-99.99,,2013-04-18 15:43:00,
2013-04-18 09:53:00,34.0,14.0,-100.00,NE,41,5.0,8.0,44,0.00,,,-99.99,,2013-04-18 15:53:00,
2013-04-18 10:03:00,34.0,14.0,-100.00,NE,41,5.0,8.0,44,0.00,,,-99.99,,2013-04-18 16:03:00,
2013-04-18 10:13:00,35.0,14.0,-100.00,NNE,27,6.0,7.0,41,0.00,,,-99.99,,2013-04-18 16:13:00,
2013-04-18 10:22:00,36.0,13.0,-100.00,NW,312,4.0,6.0,37,0.00,,,-99.99,,2013-04-18 16:22:00,
2013-04-18 10:33:00,36.0,13.0,-100.00,NW,312,4.0,6.0,37,0.00,,,-99.99,,2013-04-18 16:33:00,
2013-04-18 10:42:00,37.0,14.0,-100.00,NNE,13,6.0,9.0,39,0.00,,,-99.99,,2013-04-18 16:42:00,
2013-04-18 10:52:00,37.0,14.0,-100.00,NNE,13,6.0,9.0,39,0.00,,,-99.99,,2013-04-18 16:52:00,
2013-04-18 11:02:00,37.0,14.0,-100.00,NNE,13,6.0,9.0,39,0.00,,,-99.99,,2013-04-18 17:02:00,
2013-04-18 11:12:00,39.0,15.0,-100.00,NNW,339,7.0,11.0,38,0.00,,,-99.99,,2013-04-18 17:12:00,
2013-04-18 11:22:00,39.0,15.0,-100.00,NNW,339,7.0,11.0,38,0.00,,,-99.99,,2013-04-18 17:22:00,
2013-04-18 11:33:00,39.0,15.0,-100.00,NNW,339,7.0,11.0,38,0.00,,,-99.99,,2013-04-18 17:33:00,
2013-04-18 11:42:00,40.0,14.0,-100.00,WNW,294,4.0,6.0,34,0.00,,,-99.99,,2013-04-18 17:42:00,
2013-04-18 11:52:00,40.0,14.0,-100.00,WNW,294,4.0,6.0,34,0.00,,,-99.99,,2013-04-18 17:52:00,
2013-04-18 12:02:00,40.0,14.0,-100.00,WNW,294,4.0,6.0,34,0.00,,,-99.99,,2013-04-18 18:02:00,
2013-04-18 12:12:00,40.0,14.0,-100.00,NW,318,7.0,11.0,34,0.00,,,-99.99,,2013-04-18 18:12:00,
2013-04-18 12:22:00,41.0,14.0,-100.00,WNW,296,5.0,8.0,33,0.00,,,-99.99,,2013-04-18 18:22:00,
2013-04-18 12:32:00,41.0,14.0,-100.00,WNW,296,5.0,8.0,33,0.00,,,-99.99,,2013-04-18 18:32:00,
2013-04-18 12:42:00,41.0,15.0,-100.00,NNW,335,4.0,7.0,34,0.00,,,-99.99,,2013-04-18 18:42:00,
2013-04-18 12:52:00,42.0,15.0,-100.00,NNE,17,6.0,8.0,33,0.00,,,-99.99,,2013-04-18 18:52:00,
2013-04-18 13:02:00,42.0,15.0,-100.00,NNE,17,6.0,8.0,33,0.00,,,-99.99,,2013-04-18 19:02:00,
2013-04-18 13:12:00,42.0,15.0,-100.00,NNE,17,6.0,8.0,33,0.00,,,-99.99,,2013-04-18 19:12:00,
2013-04-18 13:22:00,43.0,17.0,-100.00,NW,311,4.0,9.0,34,0.00,,,-99.99,,2013-04-18 19:22:00,
2013-04-18 13:32:00,43.0,17.0,-100.00,NW,311,4.0,9.0,34,0.00,,,-99.99,,2013-04-18 19:32:00,
2013-04-18 13:42:00,44.0,15.0,-100.00,NNW,333,4.0,6.0,30,0.00,,,-99.99,,2013-04-18 19:42:00,
2013-04-18 13:52:00,45.0,15.0,-100.00,WNW,299,8.0,12.0,29,0.00,,,-99.99,,2013-04-18 19:52:00,
2013-04-18 14:02:00,45.0,15.0,-100.00,WNW,299,8.0,12.0,29,0.00,,,-99.99,,2013-04-18 20:02:00,
2013-04-18 14:12:00,45.0,15.0,-100.00,WNW,299,8.0,12.0,29,0.00,,,-99.99,,2013-04-18 20:12:00,
2013-04-18 14:22:00,45.0,15.0,-100.00,NNW,333,8.0,14.0,30,0.00,,,-99.99,,2013-04-18 20:22:00,
2013-04-18 14:32:00,45.0,15.0,-100.00,NNW,333,8.0,14.0,30,0.00,,,-99.99,,2013-04-18 20:32:00,
2013-04-18 14:42:00,45.0,15.0,-100.00,NNW,333,8.0,14.0,30,0.00,,,-99.99,,2013-04-18 20:42:00,
2013-04-18 14:52:00,46.0,15.0,-100.00,WNW,295,6.0,11.0,29,0.00,,,-99.99,,2013-04-18 20:52:00,
2013-04-18 15:02:00,46.0,15.0,-100.00,WNW,295,6.0,11.0,29,0.00,,,-99.99,,2013-04-18 21:02:00,
2013-04-18 15:12:00,49.0,18.0,-100.00,WNW,287,3.0,6.0,28,0.00,,,-99.99,,2013-04-18 21:12:00,
2013-04-18 15:22:00,47.0,13.0,-100.00,North,353,10.0,14.0,24,0.00,,,-99.99,,2013-04-18 21:22:00,
2013-04-18 15:32:00,47.0,13.0,-100.00,North,353,10.0,14.0,24,0.00,,,-99.99,,2013-04-18 21:32:00,
2013-04-18 15:43:00,47.0,15.0,-100.00,NW,311,9.0,18.0,27,0.00,,,-99.99,,2013-04-18 21:43:00,
2013-04-18 15:53:00,48.0,14.0,-100.00,West,280,6.0,11.0,25,0.00,,,-99.99,,2013-04-18 21:53:00,
2013-04-18 16:02:00,48.0,14.0,-100.00,West,280,6.0,11.0,25,0.00,,,-99.99,,2013-04-18 22:02:00,
2013-04-18 16:12:00,48.0,14.0,-100.00,West,280,6.0,11.0,25,0.00,,,-99.99,,2013-04-18 22:12:00,
2013-04-18 16:22:00,49.0,15.0,-100.00,NW,304,4.0,9.0,25,0.00,,,-99.99,,2013-04-18 22:22:00,
2013-04-18 16:32:00,49.0,15.0,-100.00,NW,304,4.0,9.0,25,0.00,,,-99.99,,2013-04-18 22:32:00,
2013-04-18 16:42:00,50.0,15.0,-100.00,NW,312,7.0,15.0,25,0.00,,,-99.99,,2013-04-18 22:42:00,
2013-04-18 16:52:00,49.0,15.0,-100.00,West,270,8.0,12.0,25,0.00,,,-99.99,,2013-04-18 22:52:00,
2013-04-18 17:00:00,50.0,15.0,-100.00,WNW,292,8.0,10.0,24,0.00,,,-99.99,,2013-04-18 23:00:00,
2013-04-18 17:03:00,49.0,15.0,-100.00,West,270,8.0,12.0,25,0.00,,,-99.99,,2013-04-18 23:03:00,
2013-04-18 17:11:00,50.0,16.0,-100.00,WSW,251,4.0,7.0,26,0.00,,,-99.99,,2013-04-18 23:11:00,
2013-04-18 17:21:00,50.0,16.0,-100.00,WSW,251,4.0,7.0,26,0.00,,,-99.99,,2013-04-18 23:21:00,
2013-04-18 17:32:00,50.0,16.0,-100.00,WSW,251,4.0,7.0,26,0.00,,,-99.99,,2013-04-18 23:32:00,
2013-04-18 17:42:00,50.0,15.0,-100.00,WNW,292,8.0,10.0,24,0.00,,,-99.99,,2013-04-18 23:42:00,
2013-04-18 17:52:00,50.0,15.0,-100.00,WNW,292,8.0,10.0,24,0.00,,,-99.99,,2013-04-18 23:52:00,
2013-04-18 18:12:00,50.0,16.0,-100.00,West,274,7.0,12.0,25,0.00,,,-99.99,,2013-04-19 00:12:00,
2013-04-18 18:21:00,50.0,16.0,-100.00,West,274,7.0,12.0,25,0.00,,,-99.99,,2013-04-19 00:21:00,
2013-04-18 18:32:00,50.0,16.0,-100.00,West,274,7.0,12.0,25,0.00,,,-99.99,,2013-04-19 00:32:00,
2013-04-18 18:42:00,51.0,16.0,-100.00,West,267,7.0,12.0,25,0.00,,,-99.99,,2013-04-19 00:42:00,
2013-04-18 18:52:00,50.0,16.0,-100.00,West,281,9.0,16.0,25,0.00,,,-99.99,,2013-04-19 00:52:00,
2013-04-18 19:01:00,50.0,16.0,-100.00,West,281,9.0,16.0,25,0.00,,,-99.99,,2013-04-19 01:01:00,
2013-04-18 19:11:00,49.0,16.0,-100.00,West,270,9.0,15.0,26,0.00,,,-99.99,,2013-04-19 01:11:00,
2013-04-18 19:21:00,49.0,15.0,-100.00,West,268,7.0,13.0,26,0.00,,,-99.99,,2013-04-19 01:21:00,
2013-04-18 19:31:00,49.0,15.0,-100.00,West,268,7.0,13.0,26,0.00,,,-99.99,,2013-04-19 01:31:00,
2013-04-18 19:42:00,48.0,14.0,-100.00,West,278,9.0,13.0,25,0.00,,,-99.99,,2013-04-19 01:42:00,
2013-04-18 19:52:00,48.0,14.0,-100.00,West,275,4.0,8.0,25,0.00,,,-99.99,,2013-04-19 01:52:00,
2013-04-18 20:01:00,48.0,14.0,-100.00,West,275,4.0,8.0,25,0.00,,,-99.99,,2013-04-19 02:01:00,
2013-04-18 20:11:00,48.0,13.0,-100.00,West,267,5.0,9.0,24,0.00,,,-99.99,,2013-04-19 02:11:00,
2013-04-18 20:21:00,48.0,13.0,-100.00,WSW,246,3.0,5.0,23,0.00,,,-99.99,,2013-04-19 02:21:00,
2013-04-18 20:32:00,48.0,13.0,-100.00,WSW,246,3.0,5.0,23,0.00,,,-99.99,,2013-04-19 02:32:00,
2013-04-18 20:42:00,47.0,13.0,-100.00,West,260,2.0,3.0,24,0.00,,,-99.99,,2013-04-19 02:42:00,
2013-04-18 20:52:00,47.0,14.0,-100.00,West,264,7.0,11.0,26,0.00,,,-99.99,,2013-04-19 02:52:00,
2013-04-18 21:01:00,47.0,14.0,-100.00,West,264,7.0,11.0,26,0.00,,,-99.99,,2013-04-19 03:01:00,
2013-04-18 21:11:00,46.0,18.0,-100.00,WSW,257,4.0,7.0,32,0.00,,,-99.99,,2013-04-19 03:11:00,
2013-04-18 21:21:00,45.0,19.0,-100.00,WSW,257,4.0,9.0,34,0.00,,,-99.99,,2013-04-19 03:21:00,
2013-04-18 21:32:00,45.0,19.0,-100.00,WSW,257,4.0,9.0,34,0.00,,,-99.99,,2013-04-19 03:32:00,
2013-04-18 21:43:00,45.0,19.0,-100.00,WSW,251,3.0,6.0,35,0.00,,,-99.99,,2013-04-19 03:43:00,
2013-04-18 21:53:00,45.0,19.0,-100.00,SW,233,3.0,6.0,35,0.00,,,-99.99,,2013-04-19 03:53:00,
2013-04-18 22:03:00,45.0,19.0,-100.00,SW,233,3.0,6.0,35,0.00,,,-99.99,,2013-04-19 04:03:00,
2013-04-18 22:13:00,45.0,19.0,-100.00,SW,233,3.0,6.0,35,0.00,,,-99.99,,2013-04-19 04:13:00,
2013-04-18 22:23:00,45.0,20.0,-100.00,SW,236,4.0,8.0,37,0.00,,,-99.99,,2013-04-19 04:23:00,
2013-04-18 22:33:00,45.0,20.0,-100.00,SW,236,4.0,8.0,37,0.00,,,-99.99,,2013-04-19 04:33:00,
2013-04-18 22:43:00,45.0,20.0,-100.00,SW,236,4.0,8.0,37,0.00,,,-99.99,,2013-04-19 04:43:00,
2013-04-18 22:52:00,44.0,22.0,-100.00,South,179,5.0,6.0,40,0.00,,,-99.99,,2013-04-19 04:52:00,
2013-04-18 23:03:00,44.0,22.0,-100.00,South,179,5.0,6.0,40,0.00,,,-99.99,,2013-04-19 05:03:00,
2013-04-18 23:11:00,45.0,22.0,-100.00,SSE,161,6.0,7.0,39,0.00,,,-99.99,,2013-04-19 05:11:00,
2013-04-18 23:22:00,44.0,22.0,-100.00,South,169,3.0,4.0,40,0.00,,,-99.99,,2013-04-19 05:22:00,
2013-04-18 23:31:00,44.0,22.0,-100.00,South,169,3.0,4.0,40,0.00,,,-99.99,,2013-04-19 05:31:00,
2013-04-18 23:42:00,44.0,22.0,-100.00,South,169,3.0,4.0,40,0.00,,,-99.99,,2013-04-19 05:42:00,
2013-04-18 23:52:00,44.0,22.0,-100.00,South,184,2.0,3.0,42,0.00,,,-99.99,,2013-04-19 05:52:00,